Hourly Weather Shkoder

Today, 18 September, Friday

Time Temperature Precipitation Wind Pressure Humidity
00:00 +22°C° 0 mm 3 mps 738 mmHg 60%
01:00 +22°C° 0 mm 3 mps 738 mmHg 61%
02:00 +21°C° 0 mm 3 mps 738 mmHg 60%
03:00 +21°C° 0 mm 3 mps 738 mmHg 60%
04:00 +21°C° 0 mm 3 mps 738 mmHg 59%
05:00 +22°C° 0 mm 3 mps 738 mmHg 56%
06:00 +24°C° 0 mm 3 mps 738 mmHg 52%
07:00 +24°C° 0 mm 3 mps 739 mmHg 48%
08:00 +26°C° 0 mm 3 mps 739 mmHg 43%
09:00 +28°C° 0 mm 4 mps 739 mmHg 38%
10:00 +30°C° 0 mm 4 mps 740 mmHg 33%
11:00 +30°C° 0 mm 4 mps 740 mmHg 33%
12:00 +32°C° 0 mm 5 mps 740 mmHg 32%
13:00 +33°C° 0 mm 5 mps 739 mmHg 32%
14:00 +32°C° 0 mm 5 mps 739 mmHg 34%
15:00 +30°C° 0 mm 5 mps 739 mmHg 36%
16:00 +30°C° 0 mm 5 mps 739 mmHg 38%
17:00 +28°C° 0 mm 5 mps 740 mmHg 42%
18:00 +26°C° 0 mm 4 mps 740 mmHg 46%
19:00 +25°C° 0 mm 4 mps 741 mmHg 50%
20:00 +23°C° 0 mm 4 mps 741 mmHg 52%
21:00 +22°C° 0 mm 4 mps 741 mmHg 55%
22:00 +21°C° 0 mm 4 mps 742 mmHg 57%
23:00 +21°C° 0 mm 4 mps 742 mmHg 57%

Tomorrow, 19 September, Saturday

Time Temperature Precipitation Wind Pressure Humidity
00:00 +20°C° 0 mm 4 mps 742 mmHg 57%
01:00 +20°C° 0 mm 4 mps 742 mmHg 57%
02:00 +19°C° 0 mm 4 mps 741 mmHg 59%
03:00 +19°C° 0 mm 4 mps 741 mmHg 60%
04:00 +18°C° 0 mm 4 mps 741 mmHg 61%
05:00 +19°C° 0 mm 4 mps 741 mmHg 59%
06:00 +20°C° 0 mm 3 mps 742 mmHg 56%
07:00 +20°C° 0 mm 3 mps 742 mmHg 54%
08:00 +22°C° 0 mm 3 mps 742 mmHg 48%
09:00 +26°C° 0 mm 3 mps 742 mmHg 42%
10:00 +28°C° 0 mm 3 mps 742 mmHg 37%
11:00 +29°C° 0 mm 3 mps 741 mmHg 34%
12:00 +30°C° 0 mm 3 mps 741 mmHg 32%
13:00 +31°C° 0 mm 2 mps 740 mmHg 30%
14:00 +30°C° 0 mm 2 mps 740 mmHg 30%
15:00 +30°C° 0 mm 2 mps 740 mmHg 31%
16:00 +30°C° 0 mm 2 mps 740 mmHg 31%
17:00 +28°C° 0 mm 2 mps 740 mmHg 36%
18:00 +26°C° 0 mm 2 mps 740 mmHg 41%
19:00 +24°C° 0 mm 2 mps 740 mmHg 46%
20:00 +23°C° 0 mm 2 mps 740 mmHg 48%
21:00 +23°C° 0 mm 2 mps 740 mmHg 49%
22:00 +21°C° 0 mm 2 mps 741 mmHg 51%
23:00 +21°C° 0 mm 2 mps 740 mmHg 52%

Day after tomorrow, 20 September, Sunday

Time Temperature Precipitation Wind Pressure Humidity
00:00 +20°C° 0 mm 2 mps 740 mmHg 53%
01:00 +20°C° 0 mm 2 mps 740 mmHg 54%
02:00 +20°C° 0 mm 2 mps 740 mmHg 54%
03:00 +19°C° 0 mm 2 mps 740 mmHg 55%
04:00 +19°C° 0 mm 2 mps 740 mmHg 56%
05:00 +20°C° 0 mm 2 mps 740 mmHg 54%
06:00 +21°C° 0 mm 2 mps 740 mmHg 51%
07:00 +23°C° 0 mm 2 mps 740 mmHg 49%
08:00 +25°C° 0 mm 1 mps 740 mmHg 44%
09:00 +27°C° 0 mm 1 mps 740 mmHg 38%
10:00 +29°C° 0 mm 1 mps 740 mmHg 33%
11:00 +30°C° 0 mm 2 mps 739 mmHg 32%
12:00 +31°C° 0 mm 2 mps 739 mmHg 31%
13:00 +31°C° 0 mm 3 mps 739 mmHg 30%
14:00 +31°C° 0 mm 3 mps 738 mmHg 31%
15:00 +30°C° 0 mm 3 mps 738 mmHg 33%
16:00 +30°C° 0 mm 2 mps 738 mmHg 34%
17:00 +28°C° 0 mm 2 mps 738 mmHg 41%
18:00 +25°C° 0 mm 2 mps 739 mmHg 48%
19:00 +23°C° 0 mm 1 mps 739 mmHg 55%
20:00 +22°C° 0 mm 1 mps 739 mmHg 55%
21:00 +22°C° 0 mm 1 mps 739 mmHg 55%
22:00 +21°C° 0 mm 1 mps 739 mmHg 54%
23:00 +21°C° 0 mm 1 mps 739 mmHg 54%

21 September, Monday

Time Temperature Precipitation Wind Pressure Humidity
00:00 +21°C° 0 mm 1 mps 739 mmHg 53%
01:00 +20°C° 0 mm 1 mps 739 mmHg 53%
02:00 +20°C° 0 mm 1 mps 739 mmHg 53%
03:00 +20°C° 0 mm 1 mps 739 mmHg 54%
04:00 +19°C° 0 mm 1 mps 740 mmHg 54%
05:00 +20°C° 0 mm 1 mps 740 mmHg 51%
06:00 +22°C° 0 mm 1 mps 740 mmHg 47%
07:00 +23°C° 0 mm 1 mps 740 mmHg 44%
08:00 +25°C° 0 mm 1 mps 740 mmHg 39%
09:00 +27°C° 0 mm 1 mps 740 mmHg 34%
10:00 +29°C° 0 mm 1 mps 740 mmHg 29%
11:00 +30°C° 0 mm 2 mps 740 mmHg 30%
12:00 +30°C° 0 mm 2 mps 740 mmHg 31%
13:00 +31°C° 0 mm 3 mps 739 mmHg 31%
14:00 +30°C° 0 mm 3 mps 739 mmHg 34%
15:00 +30°C° 0 mm 2 mps 739 mmHg 37%
16:00 +29°C° 0 mm 2 mps 739 mmHg 40%
17:00 +27°C° 0 mm 2 mps 739 mmHg 50%
18:00 +24°C° 0 mm 1 mps 739 mmHg 59%
19:00 +22°C° 0 mm 1 mps 739 mmHg 68%
20:00 +21°C° 0 mm 1 mps 740 mmHg 69%
21:00 +21°C° 0 mm 1 mps 740 mmHg 69%
22:00 +21°C° 0 mm 1 mps 740 mmHg 69%
23:00 +20°C° 0 mm 1 mps 740 mmHg 70%

22 September, Tuesday

Time Temperature Precipitation Wind Pressure Humidity
00:00 +20°C° 0 mm 1 mps 740 mmHg 71%
01:00 +19°C° 0 mm 1 mps 740 mmHg 71%
02:00 +19°C° 0 mm 1 mps 740 mmHg 70%
03:00 +19°C° 0 mm 1 mps 739 mmHg 69%
04:00 +19°C° 0 mm 1 mps 739 mmHg 68%
05:00 +21°C° 0 mm 1 mps 740 mmHg 63%
06:00 +22°C° 0 mm 1 mps 740 mmHg 57%
07:00 +23°C° 0 mm 1 mps 740 mmHg 51%
08:00 +25°C° 0 mm 1 mps 740 mmHg 46%
09:00 +27°C° 0 mm 1 mps 740 mmHg 40%
10:00 +29°C° 0 mm 1 mps 740 mmHg 35%
11:00 +30°C° 0 mm 2 mps 740 mmHg 34%
12:00 +30°C° 0 mm 3 mps 740 mmHg 34%
13:00 +31°C° 0 mm 3 mps 739 mmHg 34%
14:00 +30°C° 0 mm 3 mps 739 mmHg 39%
15:00 +29°C° 0 mm 3 mps 739 mmHg 45%
16:00 +28°C° 0 mm 3 mps 739 mmHg 50%
17:00 +26°C° 0 mm 2 mps 739 mmHg 61%
18:00 +23°C° 0 mm 1 mps 739 mmHg 71%
19:00 +21°C° 0 mm 1 mps 739 mmHg 81%
20:00 +21°C° 0 mm 1 mps 739 mmHg 81%
21:00 +21°C° 0 mm 1 mps 740 mmHg 81%
22:00 +20°C° 0 mm 1 mps 740 mmHg 80%
23:00 +20°C° 0 mm 1 mps 740 mmHg 81%

23 September, Wednesday

Time Temperature Precipitation Wind Pressure Humidity
00:00 +20°C° 0 mm 1 mps 740 mmHg 81%
01:00 +20°C° 0 mm 1 mps 740 mmHg 82%
02:00 +20°C° 0 mm 1 mps 740 mmHg 83%
03:00 +19°C° 0 mm 1 mps 740 mmHg 83%
04:00 +19°C° 0 mm 1 mps 740 mmHg 84%
05:00 +20°C° 0 mm 1 mps 740 mmHg 80%
06:00 +21°C° 0 mm 1 mps 740 mmHg 76%
07:00 +22°C° 0 mm 1 mps 740 mmHg 73%
08:00 +24°C° 0 mm 1 mps 740 mmHg 64%
09:00 +26°C° 0 mm 2 mps 740 mmHg 56%
10:00 +28°C° 0 mm 2 mps 740 mmHg 48%
11:00 +28°C° 0 mm 2 mps 740 mmHg 46%
12:00 +29°C° 0 mm 3 mps 740 mmHg 44%
13:00 +29°C° 0 mm 3 mps 739 mmHg 42%
14:00 +29°C° 0 mm 3 mps 739 mmHg 44%
15:00 +28°C° 0 mm 3 mps 739 mmHg 47%
16:00 +27°C° 0 mm 3 mps 739 mmHg 50%
17:00 +25°C° 0 mm 2 mps 739 mmHg 59%
18:00 +23°C° 0 mm 1 mps 739 mmHg 68%
19:00 +21°C° 0 mm 1 mps 739 mmHg 77%
20:00 +21°C° 0 mm 1 mps 739 mmHg 76%
21:00 +21°C° 0 mm 1 mps 739 mmHg 75%
22:00 +21°C° 0 mm 1 mps 740 mmHg 74%
23:00 +21°C° 0.1 mm 1 mps 739 mmHg 75%
Show more